Temp
6 7 7 6 6 6 6 6 6 6 6 6 6 7 7 7 6 6 7 7 7 7 7 7 7 7 7 7 7 7 7 7 7 7 7 8 8 7 7 7 8 8 8
6 6 6 6 6 6 6 6 6 6 6 6 6 6 7 7 6 7 7 7 7 7 7 7 7 7 7 7 7 7 7 7 7 7 7 7 7 7 7 7 8 8 8
6 6 6 6 6 6 6 6 6 6 6 6 6 6 6 6 6 7 7 7 7 7 7 7 7 7 7 7 7 7 7 7 7 7 7 7 7 7 7 7 7 8 8
4 6 6 6 6 6 6 6 6 6 6 6 6 6 6 7 7 7 7 7 7 7 7 7 6 7 7 6 7 7 7 7 6 7 7 7 7 7 7 6 7 7 7
4 4 4 6 6 6 6 6 6 6 6 7 6 6 6 6 6 7 7 7 7 7 7 7 6 7 7 6 6 6 6 6 6 7 7 7 7 6 6 7 6 7 7
5 5 5 6 6 6 6 6 6 6 6 7 6 6 6 6 6 7 7 7 7 7 7 7 7 6 7 7 6 6 6 6 6 7 7 7 7 7 6 6 6 6 7
5 6 5 4 6 6 6 6 6 6 6 6 6 6 6 6 6 6 6 6 6 6 7 6 6 6 6 6 6 6 6 6 6 6 6 6 7 7 6 6 6 6 6
5 6 6 6 6 7 6 6 6 6 6 6 6 6 6 7 6 6 6 6 6 7 7 6 6 6 6 6 6 6 6 6 6 6 6 7 7 7 7 6 6 6 6
5 5 6 6 6 6 6 6 6 6 6 6 6 6 6 6 6 6 6 6 6 6 6 7 6 6 6 6 6 6 6 6 6 5 6 6 6 6 7 7 6 6 6
5 6 6 6 6 6 6 6 6 6 6 6 6 6 6 6 6 6 6 6 6 6 6 6 6 6 6 6 6 6 6 5 5 5 6 6 6 6 6 6 6 6 6
5 5 5 5 5 5 5 5 6 6 5 5 6 6 6 6 6 6 6 6 6 6 5 6 6 6 6 6 6 6 6 5 5 5 6 6 6 6 6 6 6 6 5
4 5 5 5 5 5 5 5 5 5 5 5 5 5 5 6 6 6 6 6 6 6 5 5 6 5 6 6 6 6 6 5 5 5 6 6 6 6 6 6 6 6 5
4 4 4 4 4 5 5 5 5 5 5 5 5 5 5 5 5 5 5 5 6 5 5 5 5 6 5 6 6 6 6 5 5 6 6 6 5 5 5 5 6 6 6
4 4 4 4 4 4 4 4 4 4 4 4 5 5 5 5 5 5 5 5 5 5 6 5 6 5 5 5 6 6 6 6 5 5 6 5 5 5 5 5 5 5 5
3 3 3 3 3 3 4 4 4 4 4 4 4 4 4 4 5 5 5 4 5 5 5 5 6 5 4 5 5 5 5 5 6 5 5 5 5 5 5 5 5 5 5
3 3 3 3 3 4 4 4 3 3 4 4 4 4 4 4 3 3 4 4 4 4 4 3 5 6 4 4 4 5 5 5 5 5 6 5 5 5 5 5 5 5 5
3 2 2 2 2 2 2 2 3 3 3 3 3 3 3 3 3 2 2 2 2 3 3 3 2 5 5 3 4 4 5 5 5 5 5 5 5 4 5 4 5 5 4
1 1 1 1 1 1 1 1 1 1 1 2 2 3 3 2 2 2 1 1 1 1 2 2 2 2 5 4 3 4 4 4 5 5 5 5 5 5 4 4 4 5 4
-0 -1 -1 -1 -1 -1 -1 -1 -0 -0 0 1 1 1 1 1 1 1 1 0 -0 -0 -0 1 1 1 2 2 2 2 3 4 4 5 5 5 5 5 5 4 4 4 5
-1 -1 -2 -2 -2 -2 -2 -2 -2 -2 -2 -2 -2 -1 -0 0 -0 -1 -0 -0 -0 -1 -1 -1 0 0 0 1 1 1 2 3 3 4 5 5 5 5 5 5 5 4 4
-2 -2 -3 -3 -3 -3 -3 -4 -4 -4 -4 -4 -4 -4 -4 -3 -3 -2 -2 -2 -2 -2 -2 -2 -1 -0 -1 1 0 1 1 2 3 3 4 5 5 5 5 5 5 5 4
-3 -4 -4 -4 -4 -4 -5 -5 -5 -6 -6 -6 -6 -6 -5 -5 -5 -4 -4 -3 -4 -3 -4 -3 -2 -1 -0 -1 0 0 2 1 1 3 3 4 4 4 5 5 5 5 4
-4 -5 -5 -5 -5 -6 -6 -6 -6 -6 -7 -7 -7 -7 -7 -7 -7 -7 -6 -6 -6 -6 -6 -5 -4 -3 -2 -0 0 -0 0 0 0 2 2 4 4 4 4 5 5 5 4
-5 -5 -6 -6 -6 -7 -7 -7 -7 -7 -7 -7 -7 -7 -7 -7 -8 -8 -8 -8 -8 -8 -8 -8 -7 -5 -3 -2 -1 -1 -0 0 -0 1 2 3 3 4 4 5 5 5 4
-6 -6 -6 -7 -7 -7 -8 -8 -8 -8 -8 -8 -8 -8 -8 -9 -9 -9 -10 -10 -10 -9 -9 -9 -8 -8 -6 -4 -2 -1 -1 -0 0 -0 1 2 2 3 4 4 4 4 4
-7 -7 -7 -8 -8 -8 -8 -9 -9 -9 -9 -9 -9 -9 -9 -10 -10 -10 -11 -11 -10 -10 -10 -9 -9 -8 -8 -6 -5 -2 -2 -1 -1 -1 -0 1 2 2 3 4 4 4 4
Height
3184 3185 3187 3189 3190 3191 3190 3189 3189 3188 3188 3188 3186 3186 3186 3186 3186 3186 3186 3186 3186 3186 3187 3187 3188 3188 3188 3188 3189 3188 3188 3188 3189 3189 3190 3190 3190 3190 3191 3190 3191 3189 3189
3182 3184 3187 3188 3190 3191 3191 3190 3190 3189 3189 3189 3188 3187 3186 3185 3186 3185 3184 3184 3185 3185 3186 3187 3187 3188 3188 3189 3189 3189 3189 3189 3189 3189 3189 3191 3191 3191 3191 3191 3191 3191 3190
3180 3182 3185 3187 3188 3190 3191 3190 3190 3190 3189 3189 3189 3188 3188 3187 3186 3185 3185 3184 3184 3184 3184 3185 3185 3186 3186 3188 3188 3189 3188 3189 3189 3189 3189 3190 3190 3190 3191 3191 3192 3192 3192
3179 3181 3183 3185 3187 3188 3189 3190 3190 3190 3189 3189 3189 3189 3188 3187 3187 3187 3186 3185 3184 3184 3183 3184 3184 3185 3185 3186 3186 3187 3189 3189 3189 3190 3189 3189 3190 3191 3190 3191 3192 3193 3193
3178 3180 3182 3183 3185 3186 3187 3189 3189 3188 3188 3188 3188 3188 3188 3187 3187 3186 3186 3186 3184 3184 3183 3183 3184 3184 3185 3185 3185 3186 3186 3187 3188 3189 3189 3189 3189 3190 3190 3191 3192 3193 3193
3178 3179 3180 3181 3182 3183 3185 3186 3186 3187 3187 3187 3187 3187 3186 3186 3186 3185 3185 3185 3184 3184 3183 3183 3182 3183 3183 3183 3184 3185 3186 3186 3186 3187 3187 3187 3187 3189 3188 3189 3190 3191 3192
3176 3178 3178 3179 3180 3181 3181 3182 3183 3183 3184 3185 3185 3185 3185 3185 3185 3185 3184 3184 3183 3182 3182 3182 3182 3181 3181 3182 3182 3183 3184 3185 3184 3184 3185 3185 3185 3187 3186 3187 3188 3190 3191
3174 3175 3176 3177 3178 3178 3178 3179 3179 3180 3180 3181 3182 3182 3183 3183 3183 3183 3182 3182 3182 3181 3180 3179 3180 3180 3180 3180 3180 3181 3181 3182 3183 3183 3183 3183 3184 3185 3185 3185 3186 3187 3188
3173 3173 3174 3174 3175 3175 3176 3176 3176 3177 3177 3178 3178 3179 3179 3180 3180 3180 3180 3180 3180 3179 3179 3178 3177 3177 3177 3178 3178 3178 3178 3179 3180 3180 3181 3182 3182 3182 3183 3183 3184 3185 3186
3170 3171 3171 3172 3172 3172 3172 3172 3172 3172 3173 3174 3174 3175 3175 3175 3176 3176 3176 3176 3177 3176 3176 3175 3175 3174 3174 3174 3175 3175 3175 3175 3176 3177 3177 3178 3179 3180 3180 3181 3182 3183 3183
3167 3167 3168 3168 3168 3168 3168 3167 3167 3168 3169 3170 3170 3171 3171 3171 3171 3171 3171 3172 3172 3172 3172 3172 3171 3171 3170 3170 3171 3172 3172 3172 3172 3173 3173 3175 3176 3177 3177 3178 3179 3180 3180
3162 3162 3162 3163 3163 3163 3163 3162 3162 3162 3162 3163 3164 3165 3166 3166 3166 3166 3166 3166 3166 3166 3167 3167 3167 3166 3166 3166 3167 3168 3168 3168 3169 3170 3170 3171 3172 3172 3173 3174 3175 3176 3177
3156 3156 3156 3157 3157 3156 3156 3156 3156 3155 3155 3156 3157 3158 3158 3159 3160 3161 3161 3160 3160 3161 3161 3161 3162 3161 3160 3161 3162 3163 3163 3164 3164 3165 3166 3168 3168 3169 3169 3170 3171 3173 3174
3150 3150 3150 3149 3149 3149 3149 3149 3148 3148 3147 3147 3148 3149 3149 3150 3151 3152 3153 3153 3152 3153 3154 3155 3156 3156 3156 3155 3156 3156 3157 3158 3159 3160 3161 3163 3164 3164 3165 3166 3167 3169 3170
3146 3145 3144 3144 3143 3143 3142 3141 3141 3140 3139 3139 3138 3139 3139 3139 3141 3142 3143 3144 3144 3144 3145 3147 3148 3149 3150 3149 3150 3151 3151 3151 3153 3153 3156 3157 3159 3160 3160 3161 3162 3163 3165
3141 3140 3139 3138 3137 3136 3135 3134 3133 3132 3132 3130 3129 3129 3129 3129 3130 3131 3132 3132 3134 3135 3135 3137 3140 3141 3141 3142 3142 3143 3145 3146 3146 3147 3149 3151 3153 3154 3155 3155 3157 3158 3160
3136 3135 3134 3133 3132 3131 3129 3127 3126 3124 3123 3122 3121 3120 3119 3118 3119 3120 3121 3122 3123 3123 3125 3126 3128 3131 3132 3134 3134 3135 3137 3138 3139 3140 3142 3144 3146 3147 3149 3149 3152 3153 3154
3129 3128 3126 3125 3123 3122 3121 3119 3118 3117 3115 3114 3112 3111 3109 3108 3107 3108 3109 3109 3112 3112 3114 3115 3117 3119 3122 3124 3125 3126 3128 3130 3131 3132 3134 3136 3138 3140 3141 3143 3145 3147 3148
3122 3121 3119 3118 3117 3115 3113 3111 3108 3106 3104 3102 3101 3100 3098 3098 3097 3097 3097 3098 3099 3101 3102 3104 3106 3107 3110 3113 3113 3116 3118 3120 3122 3123 3125 3127 3129 3131 3133 3135 3137 3139 3142
3116 3115 3114 3112 3111 3109 3108 3106 3104 3101 3099 3097 3094 3092 3091 3088 3086 3086 3086 3086 3086 3087 3089 3090 3093 3097 3098 3100 3102 3103 3106 3109 3111 3113 3116 3119 3121 3122 3125 3127 3129 3131 3134
3109 3106 3104 3102 3101 3100 3099 3099 3097 3095 3092 3090 3087 3083 3081 3079 3077 3075 3074 3074 3073 3074 3075 3078 3080 3084 3089 3088 3090 3093 3094 3097 3099 3102 3106 3110 3112 3114 3116 3118 3121 3123 3126
3103 3100 3099 3098 3096 3094 3092 3090 3088 3086 3083 3080 3078 3074 3070 3068 3066 3064 3063 3062 3061 3062 3063 3064 3065 3069 3076 3080 3077 3081 3081 3084 3086 3092 3096 3101 3104 3106 3107 3109 3113 3116 3118
3098 3096 3094 3092 3090 3087 3084 3082 3078 3076 3073 3071 3067 3064 3061 3058 3056 3054 3051 3050 3050 3049 3050 3051 3051 3053 3059 3069 3067 3071 3073 3072 3075 3080 3085 3090 3093 3096 3098 3100 3104 3108 3111
3091 3089 3087 3085 3082 3080 3078 3074 3071 3068 3065 3062 3060 3058 3055 3050 3047 3044 3042 3040 3039 3038 3038 3039 3039 3039 3041 3050 3055 3054 3057 3059 3062 3066 3074 3079 3083 3086 3089 3091 3094 3099 3103
3086 3084 3082 3080 3077 3073 3069 3065 3062 3058 3055 3051 3049 3047 3044 3041 3037 3034 3032 3031 3030 3028 3028 3027 3028 3027 3028 3030 3037 3042 3039 3047 3050 3055 3061 3067 3072 3077 3079 3081 3084 3089 3093
3080 3077 3075 3072 3068 3064 3060 3056 3052 3049 3046 3043 3040 3037 3034 3031 3029 3025 3023 3022 3020 3018 3016 3016 3016 3016 3016 3016 3020 3022 3027 3030 3037 3042 3050 3056 3061 3067 3069 3071 3074 3079 3084
Wind_Speed
13 12 10 7 3 4 2 4 4 4 4 5 5 5 4 2 3 2 4 5 4 3 3 2 1 1 1 1 2 3 3 3 2 3 4 4 4 5 5 4 4 7 6
12 12 7 7 3 3 3 3 3 4 4 5 5 4 4 4 3 2 3 4 6 6 4 4 2 2 2 2 2 2 2 2 1 1 2 1 2 3 3 4 4 5 6
10 12 11 8 5 4 4 3 3 3 3 3 4 5 5 4 3 3 4 4 5 5 5 5 5 4 3 4 3 3 2 2 1 1 0 1 2 3 3 2 3 4 5
7 8 12 11 7 6 8 5 4 3 4 4 4 6 7 8 7 6 5 5 6 6 6 6 7 6 6 6 5 4 4 3 4 3 2 3 5 4 4 4 4 4 5
11 7 8 11 9 10 10 8 6 5 4 4 5 5 7 7 9 9 8 7 7 7 8 7 8 9 9 8 8 6 5 5 6 6 6 6 6 7 7 6 6 6 7
8 8 8 10 10 11 13 12 10 9 7 6 7 8 8 9 9 9 9 10 9 9 9 9 9 11 11 12 11 9 8 8 9 9 8 7 7 7 8 8 8 7 8
8 9 10 9 12 12 14 14 15 14 12 11 10 10 10 11 11 11 11 11 10 10 10 10 10 11 12 14 14 12 11 11 11 12 10 10 9 8 8 9 10 10 10
10 10 13 14 16 16 16 18 19 18 18 16 15 13 13 13 14 13 14 13 13 13 12 11 12 12 12 14 16 15 13 13 13 14 14 14 11 10 11 11 11 12 12
13 13 14 15 17 19 20 20 21 22 23 22 21 19 18 17 17 17 17 17 16 17 16 14 13 14 14 15 16 17 16 14 14 14 16 16 13 11 12 13 14 14 16
17 18 19 20 20 22 23 23 23 26 26 26 26 24 24 23 22 21 20 20 19 18 19 17 16 16 16 16 17 18 18 17 16 16 16 16 15 15 16 15 16 18 18
22 22 23 23 24 25 26 26 27 27 28 28 28 27 27 27 27 26 25 23 21 21 20 20 17 17 17 18 19 19 19 19 19 19 19 16 16 15 16 17 17 19 19
23 25 26 27 28 29 30 31 32 33 32 32 32 32 31 31 31 30 29 29 27 25 23 22 20 18 20 20 19 21 21 21 21 21 21 18 18 18 18 19 18 20 21
26 27 29 31 31 32 33 34 35 36 37 38 38 37 37 37 36 35 34 34 33 31 28 25 27 24 23 22 21 21 23 23 22 23 23 21 20 20 19 17 19 20 22
24 24 26 27 29 31 33 35 37 38 40 41 42 41 42 41 40 40 39 39 39 38 35 32 30 30 27 25 25 22 24 25 25 24 24 22 22 22 22 20 21 21 23
18 18 19 20 22 24 26 28 31 35 38 42 45 45 45 45 45 44 44 43 44 44 43 39 36 34 31 29 28 27 26 27 27 27 25 22 24 25 23 24 24 24 24
14 15 17 19 21 23 24 26 28 29 32 35 39 42 45 47 48 47 47 47 48 48 48 45 41 40 34 32 32 32 29 29 28 29 29 27 26 27 26 26 26 26 25
14 15 15 16 17 19 21 23 26 28 31 34 36 38 40 43 46 48 50 50 50 50 49 51 44 44 43 38 35 36 35 32 31 31 31 29 29 31 30 28 27 26 26
14 15 17 19 20 22 24 24 25 27 29 31 34 37 40 42 43 45 48 51 51 51 51 49 47 47 48 46 43 39 38 37 35 32 34 33 31 33 34 32 30 29 29
16 17 18 20 22 24 26 28 30 32 35 37 39 39 39 40 42 44 46 48 52 53 53 54 51 50 51 46 48 42 42 40 41 37 35 35 34 35 35 35 33 32 30
17 18 19 21 23 24 25 26 27 29 30 32 34 36 39 43 44 44 44 46 49 52 55 56 56 55 52 52 49 46 48 45 44 42 39 37 36 36 35 35 35 34 32
20 22 24 26 27 28 28 27 27 28 29 30 32 34 36 38 41 44 46 46 47 48 52 56 58 58 56 43 51 46 54 48 46 44 42 40 37 37 37 36 34 34 31
21 22 24 25 27 29 30 31 30 29 30 32 32 34 36 37 40 42 44 46 46 47 47 51 59 60 53 57 50 46 50 53 51 46 44 41 38 38 38 37 34 33 32
21 22 24 26 27 28 30 31 32 33 34 34 36 36 37 38 39 41 43 45 46 47 46 46 49 59 62 55 49 56 39 38 48 45 42 41 40 39 39 39 35 35 34
22 24 25 26 28 29 30 31 32 33 34 35 35 36 37 39 40 41 42 42 44 44 44 45 46 48 59 63 63 47 63 53 53 50 44 40 40 40 40 40 37 36 35
22 24 25 26 27 29 30 32 34 35 37 38 39 39 39 37 39 40 41 42 43 43 42 42 44 45 48 61 65 71 54 58 58 59 51 43 38 42 41 41 38 36 36
23 24 25 26 27 29 31 34 35 36 38 39 41 41 40 38 37 39 41 42 42 44 44 42 41 43 45 52 64 79 55 52 71 67 47 48 41 42 41 43 40 37 36
Wind_Direction
173 177 181 182 196 327 25 52 53 53 51 55 78 88 82 32 357 330 315 314 319 317 289 334 43 82 153 225 322 348 1 20 31 69 63 52 77 100 106 104 125 139 151
178 181 179 190 194 300 305 20 21 26 24 32 34 41 68 67 4 309 298 284 284 286 285 289 287 280 238 234 247 274 319 345 15 46 87 92 124 114 120 134 136 140 138
177 188 193 200 199 215 279 290 332 345 355 351 5 17 9 5 13 342 326 313 298 284 278 268 277 261 265 251 246 252 277 292 294 290 340 244 219 159 165 154 162 164 143
160 190 202 208 219 217 255 247 262 302 313 321 330 346 356 357 346 343 334 323 313 304 286 284 279 268 260 255 255 253 250 261 272 267 236 240 243 212 193 197 199 198 173
180 190 177 211 226 224 230 233 241 266 278 295 306 310 319 333 345 344 332 328 323 316 306 287 278 277 268 270 259 253 246 256 269 263 242 220 242 219 211 207 206 211 201
187 193 202 226 234 231 238 245 249 255 271 283 290 293 299 305 313 326 333 326 321 314 305 295 283 279 276 269 271 265 259 249 251 253 263 259 238 232 219 221 208 213 217
214 212 205 218 248 241 237 244 252 258 265 273 282 286 289 293 297 302 309 315 314 308 300 297 288 281 280 278 275 271 265 263 259 260 256 260 258 238 234 233 217 215 218
238 242 246 244 247 252 249 245 246 252 260 266 270 277 284 289 292 292 295 297 300 299 296 290 287 280 274 275 275 272 269 262 261 259 259 257 258 248 240 241 233 219 220
247 255 258 262 262 264 266 261 252 253 258 262 266 272 277 280 283 285 287 291 291 294 297 294 285 284 276 274 273 271 266 265 258 254 253 255 257 264 252 243 240 229 228
254 257 260 263 268 271 271 269 266 262 261 263 266 268 271 276 278 277 279 284 288 291 292 287 288 284 284 278 273 271 268 263 258 253 253 256 252 252 252 248 243 240 234
261 263 264 265 265 267 268 270 270 267 264 263 263 265 268 272 275 277 277 276 277 278 285 284 284 286 282 279 273 271 269 265 259 255 252 252 252 251 252 252 249 245 241
270 270 270 270 269 269 269 269 269 269 268 265 263 263 264 267 269 269 270 271 274 273 274 280 277 275 278 275 273 269 267 264 260 259 259 254 252 251 248 246 247 245 243
270 272 272 273 272 272 271 270 269 269 269 268 266 266 267 267 267 268 266 266 267 268 268 271 277 274 267 270 267 267 262 264 263 259 256 256 249 251 252 247 245 246 248
274 273 273 273 272 271 270 268 269 269 270 269 268 268 268 267 266 265 265 264 264 264 263 264 266 275 271 269 270 263 262 257 259 261 258 256 257 249 250 249 252 250 253
274 278 281 283 283 282 280 278 275 272 270 269 268 268 268 268 267 266 265 263 263 263 264 262 262 262 268 266 266 266 263 260 254 254 256 258 256 256 252 252 251 254 254
286 288 290 291 292 291 290 289 287 283 279 276 273 271 268 265 265 263 262 262 261 260 262 261 259 258 258 260 262 262 259 259 259 255 255 253 254 258 253 253 252 254 253
288 293 295 297 299 300 301 300 298 294 289 285 281 277 274 271 267 264 262 260 260 259 257 256 257 255 254 253 257 256 257 255 254 255 253 252 248 252 255 253 252 252 253
297 304 312 318 320 321 320 316 311 306 301 295 289 283 279 276 273 269 263 260 256 256 255 252 253 252 255 254 253 253 251 255 256 252 252 250 249 248 252 252 252 250 251
311 317 319 321 322 323 324 322 319 316 312 309 304 298 292 284 277 273 269 264 258 254 253 251 253 252 257 253 259 257 249 250 254 254 251 251 249 249 247 250 250 250 250
307 309 314 319 322 323 323 321 318 314 309 303 298 292 287 286 286 282 275 270 264 258 253 250 249 248 252 252 254 251 251 249 249 251 252 250 249 250 249 249 249 249 251
309 316 322 325 325 324 323 321 318 316 311 308 304 300 296 291 287 284 282 277 271 266 258 251 249 245 245 249 250 262 259 254 245 249 250 248 248 248 250 249 249 248 248
311 315 318 318 319 319 320 321 321 321 319 317 314 310 305 300 294 289 284 280 277 271 267 259 250 245 241 240 252 258 261 252 247 248 248 247 246 246 248 248 247 246 244
306 309 311 313 315 317 320 320 322 323 323 321 319 316 310 305 298 292 287 284 283 279 273 267 258 248 241 230 244 235 241 251 259 243 244 245 244 244 245 246 245 242 239
304 307 309 312 315 315 316 318 320 321 322 319 317 313 310 306 300 295 290 284 282 282 279 273 268 259 246 235 232 235 238 249 250 256 246 241 242 242 243 244 242 242 237
300 303 306 309 310 314 318 321 323 325 325 323 320 317 314 309 301 294 288 286 284 283 282 279 271 268 260 244 231 241 234 239 245 251 250 243 241 242 241 242 240 240 238
298 301 303 308 313 318 321 324 325 326 325 322 320 317 314 310 301 293 286 282 282 281 282 280 275 268 266 255 241 237 233 230 244 239 244 250 240 241 241 239 238 234 233